STARLINK-30094, 56305

Orbit data source: Space-Track

STARLINK-30094, 56305 is a payload satellite owned by SpaceX/Seattle (US) in LEO that was launched on Wed, 19 Apr 2023 UTC via an FALCON 9 launch vehicle from the Air Force Eastern Test Range (AFETR). Payload-class satellites include a variety of spacecraft equipped with specific instruments for various scientific and technological missions. These include communications satellites like Starlink; space stations such as the ISS; scientific satellites like the Hubble; Earth observation satellites from companies like Planet Labs, Umbra, and HawkEye 360; GPS; miniature CubeSats for education and research; and military/defense satellites.

Loading next visibility...
Identifier
56305, 2023-056V
Orbit
LEO
Country
Flag of USUS
Related business
Manufacturer
SpaceX/Seattle
Mission
Operational Commercial Communications
Bus & Motor
STARLINK V2M, Unknown motor
Mass
730 kg wet, ~700 kg dry
Launch date (UTC)
2023-04-19 (3 years ago)
Launch vehicle
FALCON 9
Launch site
Air Force Eastern Test Range (AFETR)
Object type
Payload
Rocket body
Debris
Shape & HBR
Box + 2 Pan, 17.7 m
Radar Cross Section
33.884 m², Large (>1 m²)

Expand to show TLE details & history
Last TLE update: 3 days ago

TLE from 3 days ago
0 STARLINK-30094
1 56305U 23056V   26170.83765823 -.00002522  00000-0 -82140-4 0  9995
2 56305  43.0034 351.8213 0001888 259.7164 100.3474 15.27580432175725
Epoch: 2026-06-19T20:06Z
TLE epoch observation values (Epoch: 2026-06-19T20:06:13.671Z)
Latitude
-0.00006°
Longitude
142.20337°
Altitude
483.056 km
Speed
7.626 km/s
True Right ascension
23h 27m 17s
True Declination
0° 00' 00"
Sunlit
Object was in daylight at epoch
Visualization orbit readout
Latitude
Unknown
Longitude
Unknown
Altitude
Unknown
Speed
Unknown
Apparent Right ascension
Unknown
Apparent Declination
Unknown
Sunlit
N/A
Visualization observer readout
Local Sidereal Time
00:51:08
Azimuth
Unknown
Elevation
Unknown
Doppler factor
Unknown
Orbital elements
Apogee altitude
486.288 km
Perigee altitude
483.697 km
Semi-major axis
6,863.129 km
Eccentricity
0.00019
Inclination
43.0034°
RAAN
351.8213°
Arg. of periapsis
259.7164°
True anomaly
100.36868°
Mean anomaly
100.3474°
Eccentric anomaly
100.35804°
Mean motion
3.81733 °/min
Orbital period
94.31 mins
BSTAR
-0.00008214
Loading maneuver chart data...
Computing Atmospheric mass density...
Loading historical data...
Loading historical data...
Loading historical data...
Loading historical data...
Loading historical data...
Loading historical data...
Loading historical data...

Documentation

Showing up to 5 results
|